Change the Weather History Date:

Tuesday, January 8, 2013

  Actual Average Record
Temperature  
Mean Temperature 56 °F -  
Max Temperature 61 °F 58 °F 79 °F (1975)
Min Temperature 51 °F 42 °F 17 °F (1970)
Degree Days  
Heating Degree Days 9    
Growing Degree Days 6 (Base 50)    
Moisture  
Dew Point 54 °F    
Average Humidity 87    
Maximum Humidity 100    
Minimum Humidity 73    
Precipitation  
Precipitation 0.55 in - - ()
Sea Level Pressure  
Sea Level Pressure 30.12 in    
Wind  
Wind Speed 9 mph (East)    
Max Wind Speed 15 mph    
Max Gust Speed 25 mph    
Visibility 6 miles    
Events Rain    
Averages and records for this station are not official NWS values.
T = Trace of Precipitation, MM = Missing Value Source: NWS Daily Summary

Daily Weather History Graph

Daily Weather History Graph

Search for Another Location

Airport or City:

Trip Planner

Search our weather history database for the weather conditions in past years. The results will help you decide how hot, cold, wet, or windy it might be!

Date:

Astronomy

Jan. 08, 2013 Rise Set
Actual Time 6:57 AM CST 5:18 PM CST
Civil Twilight 6:31 AM CST 5:44 PM CST
Nautical Twilight 6:02 AM CST 6:13 PM CST
Astronomical Twilight 5:33 AM CST 6:42 PM CST
Moon 3:32 AM CST (1/8) 2:19 PM CST (1/8)
Length of Visible Light 11h 12m
Length of Day
10h 20m
Waning Crescent, 13% of the Moon is Illuminated
Jan 8
Waning Crescent
Jan 11
New
Jan 18
First Quarter
Jan 26
Full
Feb 3
Last Quarter

Hourly Weather History & Observations

Time (CST) Temp. Dew Point Humidity Pressure Visibility Wind Dir Wind Speed Gust Speed Precip Events Conditions
12:53 AM 53.1 °F 45.0 °F 74% 30.18 in 10.0 mi NE 6.9 mph - N/A   Overcast
1:53 AM 52.0 °F 45.0 °F 77% 30.15 in 10.0 mi ENE 8.1 mph - N/A   Overcast
2:53 AM 51.1 °F 45.0 °F 80% 30.15 in 10.0 mi NE 8.1 mph - N/A   Overcast
3:53 AM 52.0 °F 44.1 °F 74% 30.14 in 10.0 mi ENE 5.8 mph - N/A   Overcast
4:20 AM 51.8 °F 44.6 °F 76% 30.12 in 10.0 mi ENE 8.1 mph - N/A   Overcast
4:53 AM 53.1 °F 45.0 °F 74% 30.13 in 10.0 mi East 8.1 mph - N/A   Overcast
5:30 AM 53.6 °F 46.4 °F 77% 30.12 in 10.0 mi ENE 6.9 mph - N/A   Overcast
5:53 AM 53.1 °F 46.9 °F 80% 30.14 in 10.0 mi ENE 5.8 mph - N/A   Overcast
6:53 AM 53.1 °F 46.9 °F 80% 30.16 in 10.0 mi NE 5.8 mph - N/A   Mostly Cloudy
7:53 AM 55.4 °F 48.2 °F 77% 30.17 in 10.0 mi ENE 4.6 mph - N/A   Overcast
8:53 AM 57.9 °F 51.1 °F 78% 30.19 in 9.0 mi East 13.8 mph - N/A   Mostly Cloudy
9:53 AM 59.0 °F 52.0 °F 78% 30.22 in 10.0 mi East 8.1 mph - N/A   Overcast
10:53 AM 57.9 °F 53.1 °F 84% 30.20 in 8.0 mi East 11.5 mph - N/A   Overcast
11:53 AM 60.1 °F 55.0 °F 83% 30.17 in 7.0 mi East 9.2 mph - N/A   Overcast
12:05 PM 59.0 °F 55.4 °F 88% 30.15 in 7.0 mi East 8.1 mph - N/A   Overcast
12:17 PM 60.8 °F 55.4 °F 82% 30.14 in 7.0 mi East 11.5 mph - N/A   Overcast
12:34 PM 59.0 °F 55.4 °F 88% 30.13 in 6.0 mi East 9.2 mph - 0.00 in Rain Light Rain
12:53 PM 57.9 °F 55.9 °F 93% 30.14 in 5.0 mi East 9.2 mph 18.4 mph 0.00 in Rain Light Rain
1:05 PM 59.0 °F 55.4 °F 88% 30.12 in 5.0 mi East 11.5 mph - 0.00 in   Overcast
1:53 PM 59.0 °F 55.9 °F 90% 30.12 in 4.0 mi ENE 6.9 mph - 0.00 in   Overcast
2:53 PM 59.0 °F 57.0 °F 93% 30.09 in 5.0 mi East 15.0 mph - 0.00 in   Overcast
3:20 PM 59.0 °F 57.2 °F 94% 30.09 in 1.2 mi East 13.8 mph 20.7 mph 0.01 in Rain Light Rain
3:26 PM 59.0 °F 57.2 °F 94% 30.09 in 2.5 mi East 12.7 mph 20.7 mph 0.03 in Rain Light Rain
3:36 PM 59.0 °F 57.2 °F 94% 30.09 in 4.0 mi East 9.2 mph 19.6 mph 0.03 in   Overcast
3:53 PM 59.0 °F 57.0 °F 93% 30.10 in 4.0 mi East 8.1 mph - 0.03 in   Overcast
4:22 PM 59.0 °F 57.2 °F 94% 30.08 in 1.2 mi East 15.0 mph 19.6 mph 0.00 in Rain Light Rain
4:29 PM 57.2 °F 57.2 °F 100% 30.07 in 1.2 mi East 12.7 mph 20.7 mph 0.00 in Rain Light Rain
4:53 PM 59.0 °F 57.0 °F 93% 30.09 in 1.5 mi East 10.4 mph - 0.00 in Rain Light Rain
5:19 PM 59.0 °F 57.2 °F 94% 30.09 in 6.0 mi East 12.7 mph 20.7 mph 0.00 in   Overcast
5:53 PM 59.0 °F 57.9 °F 96% 30.09 in 6.0 mi East 12.7 mph 25.3 mph 0.02 in Rain Light Rain
6:10 PM 60.8 °F 57.2 °F 88% 30.09 in 2.0 mi East 10.4 mph 19.6 mph 0.02 in Rain Rain
6:50 PM 60.8 °F 57.2 °F 88% 30.09 in 6.0 mi East 15.0 mph 20.7 mph 0.16 in Rain Light Rain
6:53 PM 60.1 °F 57.9 °F 93% 30.10 in 6.0 mi East 13.8 mph 20.7 mph 0.16 in Rain Light Rain
7:13 PM 60.8 °F 57.2 °F 88% 30.08 in 2.0 mi East 15.0 mph 23.0 mph 0.03 in Rain Light Rain
7:31 PM 60.8 °F 57.2 °F 88% 30.09 in 2.0 mi East 11.5 mph 20.7 mph 0.04 in Rain Light Rain
7:53 PM 60.1 °F 57.9 °F 93% 30.10 in 2.0 mi East 12.7 mph - 0.05 in Rain Light Rain
8:39 PM 60.8 °F 57.2 °F 88% 30.10 in 2.0 mi East 15.0 mph 20.7 mph 0.15 in Rain Rain
8:53 PM 60.1 °F 57.9 °F 93% 30.11 in 2.0 mi East 15.0 mph 20.7 mph 0.21 in Rain Light Rain
9:00 PM 59.0 °F 57.2 °F 94% 30.10 in 5.0 mi East 11.5 mph 20.7 mph 0.01 in Rain Light Rain
9:53 PM 59.0 °F 57.9 °F 96% 30.13 in 8.0 mi East 12.7 mph - 0.04 in Rain Light Rain
10:30 PM 60.8 °F 57.2 °F 88% 30.11 in 5.0 mi East 11.5 mph - 0.05 in Rain Light Rain
10:45 PM 59.0 °F 57.2 °F 94% 30.12 in 2.5 mi East 11.5 mph 19.6 mph 0.05 in Rain Light Rain
10:53 PM 59.0 °F 57.2 °F 94% 30.12 in 2.5 mi East 10.4 mph - N/A Rain Light Rain
11:13 PM 60.8 °F 59.0 °F 94% 30.13 in 3.0 mi East 6.9 mph - 0.00 in Rain Light Rain
11:53 PM 61.0 °F 59.0 °F 93% 30.13 in 4.0 mi East 8.1 mph - 0.03 in Rain Light Rain